• Processing (Info)

  • MPEC 2023-N73 : 2023 NM1

    The following Minor Planet Electronic Circular may be linked-to from your own Web pages, but must not otherwise be redistributed electronically.

    A form allowing access to any MPEC is at the bottom of this page.


    Read MPEC 2023-N72 Read MPEC 2023-N74


    M.P.E.C. 2023-N73                                 Issued 2023 July 15, 01:48 UT
    
         The Minor Planet Electronic Circulars contain information on unusual
             minor planets, routine data on comets and natural satellites,
             and occasional editorial announcements.  They are published
        on behalf of Division F of the International Astronomical Union by the
              Minor Planet Center, Smithsonian Astrophysical Observatory,
                              Cambridge, MA 02138, U.S.A.
    			  
                 Prepared using the Tamkin Foundation Computer Network
    
                                  MPC@CFA.HARVARD.EDU
                URL https://www.minorplanetcenter.net/    ISSN 1523-6714
    
                                    2023 NM1                                 
    
    
    Observations:
         K23N01M KC2023 07 12.99994 22 12 00.84 +29 14 59.5          20.5 GXEN073L51
         K23N01M KC2023 07 13.00122 22 11 59.73 +29 14 56.4          20.4 GXEN073L51
         K23N01M KC2023 07 13.00251 22 11 58.59 +29 14 52.5          20.2 GXEN073L51
         K23N01M*KC2023 07 13.94509 21 58 11.76 +28 19 34.8          20.9 GXEN073L51
         K23N01M KC2023 07 13.94695 21 58 09.89 +28 19 27.9          20.4 GXEN073L51
         K23N01M KC2023 07 13.94883 21 58 07.96 +28 19 20.3          20.5 GXEN073L51
         K23N01M hC2023 07 13.98635221 57 33.67 +28 16 46.9          21.2 GVEN073L01
         K23N01M hC2023 07 13.98783421 57 32.19 +28 16 41.2          21.3 GVEN073L01
         K23N01M hC2023 07 13.98931521 57 30.71 +28 16 35.5          20.9 GVEN073L01
         K23N01M IC2023 07 13.99079821 57 29.21 +28 16 30.3          20.8 GVEN073L01
         K23N01M IC2023 07 13.99521121 57 24.95 +28 16 13.5          20.8 GVEN073L01
         K23N01M 1C2023 07 13.99584 21 57 24.07 +28 15 54.2          20.7 VXEN073033
         K23N01M 1C2023 07 13.99665 21 57 23.27 +28 15 50.8          21.2 VXEN073033
         K23N01M 1C2023 07 13.99745 21 57 22.50 +28 15 47.9          20.8 VXEN073033
         K23N01M 1C2023 07 13.99829 21 57 21.65 +28 15 44.5          20.5 VXEN073033
         K23N01M KC2023 07 14.00417521 57 17.94 +28 15 32.7          20.7 GXEN073I93
         K23N01M HC2023 07 14.00492 21 57 15.87 +28 15 31.5          20.5 GVEN073204
         K23N01M KC2023 07 14.00945521 57 12.75 +28 15 12.5          20.5 GXEN073I93
         K23N01M KC2023 07 14.01343721 57 08.77 +28 14 57.4          20.4 GXEN073I93
         K23N01M HC2023 07 14.02670 21 56 54.15 +28 14 06.1                VEN073204
         K23N01M 1C2023 07 14.05988 21 56 20.33 +28 11 39.7          20.4 VXEN073033
         K23N01M 1C2023 07 14.06098 21 56 19.23 +28 11 35.1          20.2 VXEN073033
         K23N01M 1C2023 07 14.06207 21 56 18.14 +28 11 31.4          20.8 VXEN073033
         K23N01M 1C2023 07 14.06324 21 56 16.94 +28 11 26.2          20.4 VXEN073033
         K23N01M  C2023 07 14.07844 21 56 02.67 +28 10 43.5          20.8 RXEN073511
         K23N01M  C2023 07 14.09193 21 55 48.97 +28 09 48.6          20.8 RXEN073511
         K23N01M  C2023 07 14.09543 21 55 45.21 +28 09 32.6          20.8 RXEN073511
         K23N01M  C2023 07 14.09894 21 55 41.86 +28 09 18.8          20.8 RXEN073511
         K23N01M  C2023 07 14.10255 21 55 38.16 +28 09 03.6          20.8 RXEN073511
         K23N01M  C2023 07 14.10605 21 55 34.66 +28 08 48.2          20.8 RXEN073511
         K23N01M  C2023 07 14.10955 21 55 31.12 +28 08 34.4          20.8 RXEN073511
         K23N01M KC2023 07 14.93856 21 41 40.70 +27 04 09.5          20.4 GXEN073G15
         K23N01M KC2023 07 14.94851 21 41 29.66 +27 03 19.1          19.9 GXEN073G15
    
    Observer details:
    033 Karl Schwarzschild Observatory, Tautenburg.  Observers S. Melnikov, C.
        Hoegner, F. Ludwig, B. Stecklum.  Measurer B. Stecklum.  1.34-m f/3
        Schmidt + CCD.
    204 Schiaparelli Observatory.  Observer L. Buzzi.  0.84-m f/3.5 reflector +
        CCD.
    511 Haute Provence.  Observers W. Thuillot, M. Saillenfest.  Measurers M.
        Saillenfest, S. Bouquillon, F. Taris, T. Carlucci, C. Barache.  1.20-m f/6
        reflector + CCD.
    G15 Magroforte Observatory, Alessandria.  Observer A. De Pieri.  0.23-m f/6.7
        SC + CCD.
    I93 St Pardon de Conques.  Observer F. Losse.  0.40-m f/3.7 reflector + CMO.
    L01 Visnjan Observatory, Tican.  Observer K. Korlevic.  1.0-m f/2.9 reflector
        + CCD.
    L51 MARGO, Nauchnyi.  Observer G. Borisov.  0.50-m f/1.9 reflector + CCD.
    
    Orbital elements:
    2023 NM1                                                 Earth MOID = 0.0205 AU
    Epoch 2023 Feb. 25.0 TT = JDT 2460000.5                 Veres                   
    M 303.64727              (2000.0)            P               Q                  
    n   1.62101444     Peri.  354.16136     -0.45978976     -0.87677459             
    a   0.7177031      Node   123.13382     +0.82140793     -0.48021303             
    e   0.4565346      Incl.    9.68834     +0.33746465     -0.02572474             
    P   0.61           H   25.11          G   0.15           U   9                  
    Residuals in seconds of arc
    230712 L51  0.1-  0.5-    230713 033  0.4-  0.1+    230714 033  0.3+  0.5+
    230713 L51  0.1+  0.3+    230713 033  0.4-  0.2-    230714 033  0.1-  0.1+
    230713 L51  0.0   0.3+    230713 033  0.1-  0.1+    230714 511  0.8+  0.1+
    230713 L51  0.6+  0.6-    230713 033  0.4-  0.1-    230714 511  0.4+  0.7+
    230713 L51  0.2+  0.3-    230714 I93  0.1+  0.2-    230714 511  2.3-  0.8-
    230713 L51  0.7-  0.7-    230714 204  0.2-  0.3+    230714 511  0.5+  0.1-
    230713 L01  0.1-  0.2+    230714 I93  0.7+  0.2-    230714 511  0.0   0.2-
    230713 L01  0.2-  0.2+    230714 I93  0.3+  0.0     230714 511  0.7+  1.0-
    230713 L01  0.4-  0.2+    230714 204  0.2-  0.1-    230714 511  0.9+  0.1-
    230713 L01  0.7-  0.7+    230714 033  0.2+  0.1-    230714 G15  0.2-  0.8+
    230713 L01  0.9+  0.9+    230714 033  0.3+  0.2-    230714 G15  0.2+  0.8-
    
    Ephemeris:
    2023 NM1                 a,e,i = 0.72, 0.46, 10                  q = 0.3900
    Date    TT    R. A. (2000) Decl.     Delta      r    Elong.  Phase     V
    2023 06 15    00 15 25.8 +32 38 30   0.1796  0.9653    68.8   101.2    25.0
    ...
    2023 06 30    23 42 01.8 +32 28 51   0.1141  1.0185    87.7    85.8    23.4
    ...
    2023 07 08    23 02 33.8 +31 39 21   0.07754 1.0352   101.7    74.1    22.2
    ...
    2023 07 14    21 57 17.2 +28 16 51   0.05188 1.0425   118.7    58.8    20.9
    2023 07 15    21 40 28.8 +27 00 06   0.04810 1.0433   122.7    55.1    20.6
    2023 07 16    21 21 21.3 +25 20 24   0.04459 1.0439   127.0    51.1    20.3
    ...
    2023 07 22    18 42 47.8 +03 51 45   0.03392 1.0452   148.7    30.3    19.2
    ...
    2023 07 30    15 56 57.0 -21 58 44   0.05496 1.0400   115.4    61.9    21.1
    ...
    2023 08 14    14 28 52.8 -31 01 21   0.1222  1.0088    84.5    88.6    23.7
    
    M. P. C. Staff               (C) Copyright 2023 MPC           M.P.E.C. 2023-N73
    


    Read MPEC 2023-N72 Read MPEC 2023-N74


    MPEC number:

    Enter an MPEC number in one of the following forms:

    • 1997-B01 (the full form)
    • J97B01 (the packed version of the full form)
    • B01 (the abbreviated form)